Track STARLINK-1470 now! 10-day predictions STARLINK-1470 is classified as:
1 45772U 20038AU 22177.31078295 .00000661 00000-0 63265-4 0 9991 2 45772 53.0549 147.6712 0001648 78.6911 281.4263 15.06399808112922